Taos, NM

5:37 PM MDT on August 19, 2017 (GMT -0600)
Taos Municipal

Weather History for KSKX - February, 2013

Change the Weather History Date:

Tuesday, February 26, 2013

  Actual Average Record
Temperature  
Mean Temperature 26 °F -  
Max Temperature 35 °F 41 °F 57 °F (2006)
Min Temperature 17 °F 17 °F 8 °F (2006)
Degree Days  
Heating Degree Days 39    
Moisture  
Dew Point 11 °F    
Average Humidity 57    
Maximum Humidity 93    
Minimum Humidity 25    
Precipitation  
Precipitation 0.00 in - - ()
Sea Level Pressure  
Sea Level Pressure 29.86 in    
Wind  
Wind Speed 8 mph (NW)    
Max Wind Speed 25 mph    
Max Gust Speed 36 mph    
Visibility 9 miles    
Events      
Averages and records for this station are not official NWS values.
T = Trace of Precipitation, MM = Missing Value Source: NWS Daily Summary

Daily Weather History Graph

Daily Weather History Graph

Search for Another Location

Airport or City:

Trip Planner

Search our weather history database for the weather conditions in past years. The results will help you decide how hot, cold, wet, or windy it might be!

Date:

Astronomy

Feb. 26, 2013 Rise Set
Actual Time 6:36 AM MST 5:54 PM MST
Civil Twilight 6:10 AM MST 6:20 PM MST
Nautical Twilight 5:40 AM MST 6:50 PM MST
Astronomical Twilight 5:11 AM MST 7:20 PM MST
Moon 7:10 PM MST (2/26) 6:43 AM MST (2/26)
Length of Visible Light 12h 09m
Length of Day
11h 18m
Full, 99% of the Moon is Illuminated
Feb 26
Full
Mar 4
Last Quarter
Mar 11
New
Mar 19
First Quarter
Mar 27
Full

Hourly Weather History & Observations

Time (MST) Temp. Windchill Dew Point Humidity Pressure Visibility Wind Dir Wind Speed Gust Speed Precip Events Conditions
12:15 AM 21.2 °F 13.6 °F 14.0 °F 74% 29.90 in 10.0 mi East 5.8 mph - N/A   Clear
12:35 AM 19.4 °F 12.8 °F 12.2 °F 74% 29.90 in 10.0 mi SE 4.6 mph - N/A   Clear
12:55 AM 19.4 °F 12.8 °F 15.8 °F 86% 29.89 in 10.0 mi ESE 4.6 mph - N/A   Partly Cloudy
1:15 AM 21.2 °F 13.6 °F 15.8 °F 80% 29.90 in 10.0 mi East 5.8 mph - N/A   Scattered Clouds
1:35 AM 23.0 °F 13.9 °F 15.8 °F 74% 29.90 in 10.0 mi ENE 8.1 mph - N/A   Partly Cloudy
1:55 AM 24.8 °F 16.1 °F 15.8 °F 69% 29.88 in 10.0 mi East 8.1 mph - N/A   Partly Cloudy
2:15 AM 23.0 °F 17.0 °F 15.8 °F 74% 29.88 in 10.0 mi East 4.6 mph - N/A   Partly Cloudy
2:35 AM 21.2 °F 12.6 °F 12.2 °F 68% 29.87 in 10.0 mi East 6.9 mph - N/A   Mostly Cloudy
2:55 AM 21.2 °F 11.7 °F 14.0 °F 74% 29.87 in 10.0 mi ENE 8.1 mph - N/A   Partly Cloudy
3:15 AM 21.2 °F 13.6 °F 12.2 °F 68% 29.85 in 10.0 mi ENE 5.8 mph - N/A   Clear
3:35 AM 19.4 °F 14.3 °F 12.2 °F 74% 29.86 in 10.0 mi ENE 3.5 mph - N/A   Clear
3:55 AM 17.6 °F - 10.4 °F 73% 29.86 in 10.0 mi Calm Calm - N/A   Clear
4:15 AM 17.6 °F - 10.4 °F 73% 29.85 in 10.0 mi Calm Calm - N/A   Clear
4:35 AM 17.6 °F - 10.4 °F 73% 29.84 in 10.0 mi Calm Calm - N/A   Clear
4:55 AM 17.6 °F - 10.4 °F 73% 29.84 in 10.0 mi Calm Calm - N/A   Clear
5:15 AM 17.6 °F - 8.6 °F 68% 29.84 in 10.0 mi Calm Calm - N/A   Clear
5:35 AM 17.6 °F - 8.6 °F 68% 29.84 in 10.0 mi Calm Calm - N/A   Clear
5:55 AM 21.2 °F - 8.6 °F 58% 29.83 in 10.0 mi Calm Calm - N/A   Clear
6:15 AM 17.6 °F - 6.8 °F 63% 29.83 in 10.0 mi Calm Calm - N/A   Clear
6:35 AM 21.2 °F - 8.6 °F 58% 29.82 in 10.0 mi Calm Calm - N/A   Clear
6:55 AM 17.6 °F 12.3 °F 8.6 °F 68% 29.82 in 10.0 mi East 3.5 mph - N/A   Clear
7:15 AM 19.4 °F - 10.4 °F 68% 29.82 in 10.0 mi Calm Calm - N/A   Clear
7:35 AM 24.8 °F 20.5 °F 12.2 °F 59% 29.83 in 10.0 mi SSE 3.5 mph - N/A   Clear
7:55 AM 24.8 °F 17.9 °F 8.6 °F 50% 29.82 in 10.0 mi South 5.8 mph - N/A   Clear
8:15 AM 26.6 °F 19.1 °F 10.4 °F 51% 29.81 in 10.0 mi South 6.9 mph - N/A   Clear
8:35 AM 26.6 °F 19.1 °F 10.4 °F 51% 29.81 in 10.0 mi SSW 6.9 mph - N/A   Clear
8:55 AM 28.4 °F - 10.4 °F 47% 29.81 in 10.0 mi Calm Calm - N/A   Clear
9:15 AM 28.4 °F 23.3 °F 10.4 °F 47% 29.81 in 10.0 mi South 4.6 mph - N/A   Clear
9:35 AM 30.2 °F 26.7 °F 12.2 °F 47% 29.80 in 10.0 mi SSE 3.5 mph - N/A   Clear
9:55 AM 33.8 °F 24.3 °F 12.2 °F 41% 29.79 in 10.0 mi West 13.8 mph 19.6 mph N/A   Clear
10:15 AM 35.6 °F 24.0 °F 12.2 °F 38% 29.78 in 10.0 mi WNW 23.0 mph - N/A   Clear
10:35 AM 35.6 °F 24.5 °F 10.4 °F 35% 29.78 in 10.0 mi WNW 20.7 mph 26.5 mph N/A   Clear
10:55 AM 35.6 °F 24.2 °F 10.4 °F 35% 29.78 in 10.0 mi WNW 21.9 mph 28.8 mph N/A   Clear
11:15 AM 35.6 °F 24.8 °F 10.4 °F 35% 29.77 in 10.0 mi West 19.6 mph - N/A   Partly Cloudy
11:35 AM 35.6 °F 25.9 °F 10.4 °F 35% 29.77 in 10.0 mi West 16.1 mph 26.5 mph N/A   Partly Cloudy
11:55 AM 35.6 °F 24.8 °F 10.4 °F 35% 29.76 in 10.0 mi WNW 19.6 mph 27.6 mph N/A   Mostly Cloudy
12:15 PM 33.8 °F 21.6 °F 6.8 °F 32% 29.76 in 10.0 mi WNW 23.0 mph 26.5 mph N/A   Mostly Cloudy
12:35 PM 33.8 °F 21.6 °F 8.6 °F 35% 29.76 in 10.0 mi WNW 23.0 mph 29.9 mph N/A   Mostly Cloudy
12:55 PM 33.8 °F 21.9 °F 12.2 °F 41% 29.75 in 10.0 mi WNW 21.9 mph 28.8 mph N/A   Mostly Cloudy
1:15 PM 35.6 °F 23.4 °F 10.4 °F 35% 29.75 in 10.0 mi WNW 25.3 mph 35.7 mph N/A   Scattered Clouds
1:35 PM 33.8 °F 21.9 °F 10.4 °F 38% 29.75 in 10.0 mi WNW 21.9 mph 31.1 mph N/A   Partly Cloudy
1:55 PM 35.6 °F 23.7 °F 8.6 °F 33% 29.76 in 10.0 mi WNW 24.2 mph 32.2 mph N/A   Scattered Clouds
2:15 PM 33.8 °F 22.5 °F 6.8 °F 32% 29.77 in 10.0 mi WNW 19.6 mph 29.9 mph N/A   Mostly Cloudy
2:35 PM 35.6 °F 25.2 °F 8.6 °F 33% 29.78 in 10.0 mi NW 18.4 mph 29.9 mph N/A   Scattered Clouds
2:55 PM 35.6 °F 25.2 °F 6.8 °F 30% 29.77 in 10.0 mi WNW 18.4 mph 25.3 mph N/A   Clear
3:15 PM 35.6 °F 24.8 °F 6.8 °F 30% 29.78 in 10.0 mi WNW 19.6 mph 25.3 mph N/A   Partly Cloudy
3:35 PM 33.8 °F 22.8 °F 3.2 °F 28% 29.79 in 10.0 mi WNW 18.4 mph 26.5 mph N/A   Mostly Cloudy
3:55 PM 33.8 °F 23.5 °F 1.4 °F 25% 29.79 in 10.0 mi WNW 16.1 mph 23.0 mph N/A   Overcast
4:15 PM 33.8 °F 23.9 °F 1.4 °F 25% 29.80 in 10.0 mi NW 15.0 mph 21.9 mph N/A   Overcast
4:35 PM 30.2 °F 17.4 °F 3.2 °F 32% 29.81 in 10.0 mi WNW 20.7 mph 25.3 mph N/A   Overcast
4:55 PM 30.2 °F 18.5 °F 3.2 °F 32% 29.83 in 10.0 mi WNW 17.3 mph 23.0 mph N/A   Overcast
5:15 PM 30.2 °F 20.8 °F 3.2 °F 32% 29.84 in 10.0 mi NW 11.5 mph - N/A   Overcast
5:35 PM 28.4 °F 17.5 °F 5.0 °F 37% 29.85 in 10.0 mi NW 13.8 mph - N/A   Overcast
5:55 PM 28.4 °F 19.1 °F 5.0 °F 37% 29.86 in 10.0 mi NW 10.4 mph 19.6 mph N/A   Overcast
6:15 PM 28.4 °F 18.5 °F 6.8 °F 40% 29.87 in 10.0 mi NW 11.5 mph - N/A   Overcast
6:35 PM 28.4 °F 17.0 °F 6.8 °F 40% 29.89 in 10.0 mi WNW 15.0 mph 19.6 mph N/A   Overcast
6:55 PM 26.6 °F 15.2 °F 8.6 °F 47% 29.91 in 10.0 mi NW 13.8 mph - N/A   Mostly Cloudy
7:15 PM 24.8 °F 16.9 °F 17.6 °F 74% 29.94 in 1.8 mi North 6.9 mph - N/A   Overcast
7:35 PM 24.8 °F - 19.4 °F 80% 29.94 in 1.0 mi Calm Calm - N/A   Overcast
7:55 PM 23.0 °F 17.0 °F 17.6 °F 80% 29.95 in 10.0 mi SW 4.6 mph - N/A   Overcast
8:15 PM 21.2 °F 11.7 °F 17.6 °F 86% 29.95 in 10.0 mi SSW 8.1 mph - N/A   Mostly Cloudy
8:35 PM 19.4 °F - 17.6 °F 93% 29.97 in 10.0 mi Calm Calm - N/A   Scattered Clouds
8:55 PM 23.0 °F 14.7 °F 17.6 °F 80% 29.99 in 1.8 mi North 6.9 mph - N/A   Overcast
9:15 PM 21.2 °F 12.6 °F 19.4 °F 93% 30.00 in 3.0 mi NNW 6.9 mph - N/A   Overcast
9:55 PM 21.2 °F 10.9 °F 17.6 °F 86% 30.02 in 10.0 mi North 9.2 mph - N/A   Mostly Cloudy
10:15 PM 21.2 °F 10.9 °F 15.8 °F 80% 30.02 in 10.0 mi North 9.2 mph - N/A   Mostly Cloudy
10:35 PM 19.4 °F 12.8 °F 15.8 °F 86% 30.03 in 7.0 mi NNW 4.6 mph - N/A   Mostly Cloudy
10:55 PM 17.6 °F 12.3 °F 15.8 °F 93% 30.03 in 10.0 mi WNW 3.5 mph - N/A   Mostly Cloudy
11:15 PM 17.6 °F 7.3 °F 12.2 °F 79% 30.04 in 4.0 mi North 8.1 mph - N/A   Overcast
11:35 PM 19.4 °F 10.4 °F 15.8 °F 86% 30.04 in 9.0 mi North 6.9 mph - N/A   Overcast
11:55 PM 19.4 °F 8.6 °F 15.8 °F 86% 30.05 in 7.0 mi NNW 9.2 mph - N/A   Overcast